Location: Aberffraw Bay
(53.1667°N, 4.4667°W)
Time: 15:23:40
(UTC+00:00)

Daily predictions for brighter satellites

Satellite Brightness Start Highest point End
(mag) Time Altitude Azimuth Time Altitude Azimuth Time Altitude Azimuth
Tsikada Rocket 4.1 16:30:19 10° S 16:36:40 66° E 16:43:00 10° NNE
ALOS 2.3 16:34:10 10° SSE 16:38:50 89° E 16:43:33 10° NNW
SJ-12 4.2 16:35:19 10° S 16:39:28 78° WSW 16:43:39 10° NNW
Cosmos 304 Rocket 4.1 16:35:19 10° NNW 16:39:55 43° NE 16:44:30 10° SE
Cosmos 1980 Rocket 3.3 16:36:20 10° WSW 16:41:40 40° NW 16:47:02 10° NNE
Cosmos 332 Rocket 3.8 16:37:11 10° NNW 16:42:05 69° ENE 16:46:55 10° SE
Cosmos 2333 Rocket 3.6 16:39:04 10° SSE 16:43:14 21° E 16:47:26 10° NE
Cosmos 1733 Rocket 4.2 16:40:17 10° NNE 16:43:46 23° ENE 16:47:15 10° ESE
CENTAUR R/B 3.5 16:38:47 10° NW 16:46:36 76° SW 16:55:13 10° SE
ERBS 2.6 16:44:12 10° WNW 16:47:31 68° SSW 16:50:51 10° SE
Meteor 1-14 Rocket 4.3 16:41:50 10° N 16:47:50 72° ENE 16:53:42 10° SSE
SL-16 R/B 4.0 16:43:18 10° N 16:48:39 32° NW 16:53:58 10° WSW
USA 215 3.5 16:42:07 10° ENE 16:48:39 65° SSE 16:55:09 10° SW
Lacrosse 4 Rocket 3.6 16:48:02 10° NW 16:49:50 12° NNW 16:51:37 10° N
Cosmos 1869 Rocket 3.6 16:45:36 10° N 16:49:59 63° ENE 16:54:23 10° SSE
Radarsat Rocket 4.0 16:47:33 10° SSE 16:53:46 89° ENE 16:59:38 10° NNW
NOAA 6 4.2 16:49:01 10° SSE 16:54:10 83° WSW 16:59:20 10° NNW
Envisat 3.8 16:50:21 10° ESE 16:54:40 29° ENE 16:59:00 10° N
Cosmos 1331 Rocket 4.1 16:50:36 10° NNW 16:55:51 85° WSW 17:01:08 10° SSE
Cosmos 2237 Rocket 4.1 16:55:25 10° E 16:56:03 10° E 16:56:42 10° E
Meteor 1-26 Rocket 4.3 16:51:56 10° S 16:57:43 67° E 17:03:22 10° NNE
NOSS 8 (E) 4.4 16:54:58 10° SW 16:58:04 69° NW 17:01:14 10° NE
Feng Yun 1-1 Rocket 4.3 16:53:26 10° SE 16:58:40 54° ENE 17:03:56 10° N
Cosmos 2322 Rocket 2.4 16:53:29 10° SW 16:59:07 78° WNW 17:04:49 10° NNE
Cosmos 1844 3.9 16:53:44 10° NNW 16:59:30 83° WSW 17:05:09 10° SSE
Cosmos 1812 4.5 16:58:42 10° ESE 17:00:47 14° E 17:02:32 11° NE
NOSS 2-2 (D) 3.3 16:57:48 10° SW 17:01:30 84° SE 17:05:49 11° NE
ASTEX 1 4.3 16:57:00 10° N 17:01:49 50° WNW 17:06:34 10° SSW
Cosmos 1110 Rocket 4.4 16:59:03 10° NNW 17:04:13 68° WSW 17:09:22 10° SSE
SL-16 R/B 2.6 16:58:47 10° SW 17:04:26 65° NW 17:10:07 10° NNE
Cosmos 371 Rocket 3.8 17:00:40 10° NNW 17:05:32 67° WSW 17:10:23 10° SSE
Cosmos 1536 4.1 17:03:38 10° NNE 17:06:42 20° ENE 17:09:45 10° ESE
Okean O Rocket 2.3 17:06:31 10° S 17:10:47 58° WSW 17:15:07 10° NNW
CZ-4 R/B 2.7 17:09:27 10° ESE 17:12:11 18° ENE 17:14:54 10° NNE
Cosmos 1697 Rocket 4.5 17:08:04 10° W 17:12:21 21° NNW 17:16:37 10° NNE
Cosmos 2219 Rocket 3.0 17:09:02 10° SSE 17:13:58 32° ESE 17:18:26 12° NE
Cosmos 1602 3.8 17:12:37 10° NNW 17:16:30 84° W 17:20:23 10° S
Cosmos 1689 Rocket 2.4 17:13:43 10° N 17:16:46 68° WNW 17:19:46 10° SSW
Cosmos 1844 Rocket 3.6 17:11:47 10° NW 17:17:13 54° WSW 17:22:38 10° S
Cosmos 2228 Rocket 3.6 17:13:55 10° SSW 17:18:27 66° WNW 17:23:04 10° N
CORIOLIS 4.2 17:14:31 10° SSE 17:19:54 64° ENE 17:25:19 10° N
Okean-O 2.9 17:17:20 10° SE 17:21:33 44° ENE 17:25:47 10° N
Cosmos 1500 3.7 17:19:10 10° N 17:22:44 37° ENE 17:26:14 10° SE
NOAA 12 4.2 17:18:25 10° SE 17:23:34 53° ENE 17:28:43 10° N
Cosmos 2237 4.2 17:18:25 10° SSW 17:24:10 85° ESE 17:29:57 10° NNE
BREEZE-M DEB (TANK) 3.6 17:16:37 10° W 17:24:23 50° SSW 17:27:16 10° ESE
Lacrosse 5 rocket 3.4 17:23:25 10° SSE 17:25:27 13° SE 17:26:52 11° ESE
Cosmos 2279 Rocket 4.0 17:19:10 10° N 17:25:28 83° E 17:31:45 10° SSE
CZ-4B R/B 3.0 17:22:19 10° N 17:25:35 36° WNW 17:28:49 10° SW
ATLAS 3B R/B 3.4 17:19:08 10° NW 17:25:41 58° SW 17:32:22 10° SSE
Cosmos 1340 3.1 17:22:30 10° NNW 17:26:17 66° W 17:30:02 10° S
NOSS 3-4 (A) 3.6 17:20:26 10° SSW 17:26:19 57° SE 17:31:33 15° NE
NOSS 3-4 (C) 3.7 17:20:33 10° SSW 17:26:26 57° SE 17:31:39 15° NE
AQUARIUS 4.1 17:22:32 10° SSE 17:27:01 73° ENE 17:31:32 10° NNW
ISS -3.1 17:23:50 10° W 17:27:08 55° SSW 17:30:13 11° ESE
Helios 1A Rocket 4.5 17:24:27 10° S 17:28:20 39° W 17:32:13 10° NNW
H-2A R/B 2.5 17:26:03 10° SSE 17:29:45 74° ENE 17:33:27 10° N
Cosmos 1943 Rocket 3.6 17:28:47 10° NNW 17:32:46 19° NNE 17:34:39 16° NE
Meteor 1-5 Rocket 4.1 17:28:55 10° N 17:34:36 70° ENE 17:40:02 10° SSE
SL-4 R/B 3.4 17:31:54 10° SSW 17:34:59 24° SE 17:36:58 17° ESE
COSMOS 2428 3.1 17:29:55 10° S 17:35:15 44° ESE 17:39:28 16° NE
COSMOS 2455 3.3 17:29:25 10° WSW 17:35:21 57° NW 17:40:50 12° NE
COBE Rocket 3.9 17:31:10 10° NNE 17:35:42 50° E 17:40:13 10° S
Ariane Rocket 4.2 17:37:34 19° ENE 17:38:04 19° NE 17:41:35 10° N
NOSS 2-2 (C) 3.8 17:35:28 10° WSW 17:39:11 56° NW 17:42:22 18° NE
Cosmos 1707 Rocket 3.5 17:35:07 10° S 17:39:33 71° E 17:44:02 10° NNE
CSL-04 Rocket 4.1 17:36:25 10° SE 17:41:11 36° ENE 17:45:59 10° N
Cosmos 1269 Rocket 4.0 17:37:18 10° SSW 17:42:37 83° ESE 17:47:39 12° NNE
Cosmos 494 Rocket 4.1 17:37:43 10° SSW 17:43:01 85° WNW 17:48:11 11° NNE
Cosmos 1900 4.3 17:38:28 10° NW 17:43:20 58° NE 17:48:09 10° ESE
STARLINK-67 3.6 17:41:33 10° SW 17:44:07 34° SSE 17:44:53 28° ESE
Cosmos 1782 3.3 17:40:19 10° SSW 17:44:17 63° WNW 17:48:16 10° N
Cosmos 1315 Rocket 2.9 17:44:02 10° SSW 17:48:01 79° WNW 17:52:05 10° NNE
FengYun 1-2 T 4.2 17:43:17 10° SE 17:48:37 56° ENE 17:54:00 10° N
YAOGAN 6 2.9 17:45:30 10° SE 17:48:50 41° ENE 17:52:14 10° N
Cosmos 1346 Rocket 4.1 17:45:26 10° NNW 17:49:11 42° W 17:52:56 10° SSW
Nadezhda 4 Rocket 4.2 17:44:31 10° SSE 17:50:35 50° E 17:56:39 10° NNE
CSL-04 Debris 4.5 17:46:57 10° SE 17:52:05 43° ENE 17:57:13 10° N
YAOGAN 3 4.5 17:47:53 10° SSE 17:52:15 80° ENE 17:56:39 10° NNW
Cosmos 1908 Rocket 3.9 17:49:53 10° N 17:54:07 41° ENE 17:58:16 10° SE
COSMO-SKYMED 1 3.3 17:53:53 28° ENE 17:55:00 32° E 17:58:53 10° SSE
Cosmos 2333 4.2 17:49:25 10° SSW 17:55:08 82° ESE 17:59:44 17° NNE
Meteor 2-6 Rocket 4.0 17:53:40 10° S 17:59:03 86° ESE 18:04:31 10° NNE
Genesis I 3.8 17:56:47 10° NW 18:00:29 36° NNE 18:01:01 35° NE
Cosmos 2322 3.8 17:55:01 10° SSW 18:00:45 83° WNW 18:05:19 17° NNE
NOSS 2-2 (E) 4.4 17:58:18 10° W 18:02:02 40° NNW 18:04:35 22° NNE
Cosmos 2344 4.4 17:54:20 10° WNW 18:02:22 48° NNE 18:08:48 23° ENE
ATLAS 2AS CENTAUR R/B 3.1 17:56:10 10° SW 18:04:14 80° NW 18:10:07 20° NE
Meteor 1-10 Rocket 4.1 18:01:19 10° S 18:06:52 87° ESE 18:12:31 10° NNE
Cosmos 2251 Rocket 3.8 18:01:54 10° S 18:06:56 45° ESE 18:09:04 30° NE
Cosmos 1666 2.8 18:04:01 10° N 18:07:41 47° ENE 18:11:18 10° SSE
Cosmos 2278 Rocket 2.3 18:02:31 10° NNW 18:08:13 80° WSW 18:13:52 10° SSE
BREEZE-M R/B 3.3 18:03:36 10° WSW 18:08:58 51° S 18:10:05 35° SE
YAOGAN 1 2.7 18:04:52 10° SE 18:09:03 49° ENE 18:13:15 10° N
SMAP 4.2 18:04:59 10° S 18:09:28 45° W 18:13:58 10° NNW
NOAA 11 4.4 18:05:15 10° SE 18:10:24 45° ENE 18:15:37 10° N
Cosmos 2026 Rocket 4.4 18:08:13 10° SSE 18:13:37 35° E 18:15:46 27° NE
SeaSat 1 3.0 18:14:08 34° ENE 18:14:49 36° NE 18:19:19 10° NNW
H-2A R/B 4.1 18:18:14 12° NNE 18:18:14 12° NNE 18:18:47 10° N
Meteor 1-11 Rocket 4.1 18:11:37 10° NNW 18:17:34 71° W 18:23:30 10° S
RESURS DK-1 2.3 18:13:31 10° SSW 18:17:36 62° ESE 18:18:24 50° ENE
Cosmos 2360 Rocket 3.1 18:14:09 10° WSW 18:19:34 45° NW 18:23:58 15° NNE
Cosmos 1733 Rocket 3.9 18:17:38 10° NNW 18:21:53 51° W 18:26:07 10° S
Cosmos 2369 Rocket 3.2 18:19:20 10° NNW 18:23:52 26° NNE 18:23:52 26° NNE
SL-16 R/B 4.1 18:21:51 10° SE 18:22:46 13° SE 18:22:46 13° SE
Cosmos 2333 Rocket 2.2 18:21:04 10° SSW 18:26:50 85° WNW 18:30:14 26° NNE
Cosmos 1980 Rocket 4.3 18:23:49 10° WNW 18:27:21 16° NNW 18:30:31 11° NNE
Meteor 1-27 Rocket 3.7 18:22:53 10° S 18:28:38 83° E 18:34:31 10° NNE
Cosmos 1867 3.9 18:24:40 10° NW 18:29:57 45° NNE 18:30:43 42° ENE
Cosmos 292 Rocket 3.6 18:25:18 10° NNW 18:30:13 79° ENE 18:33:41 19° SSE
Lacrosse 4 Rocket 3.8 18:29:00 10° N 18:29:42 11° N 18:29:42 11° N
USA 215 3.3 18:28:40 33° ENE 18:31:48 73° NNW 18:38:19 10° W
Envisat 3.7 18:28:28 10° S 18:33:27 55° W 18:38:27 10° NNW
Cosmos 1812 3.0 18:32:14 10° SSW 18:36:05 66° WNW 18:37:40 33° N
Cosmos 2237 Rocket 2.3 18:33:20 10° S 18:38:52 54° ESE 18:39:44 49° E
SKYMED 2 3.4 18:42:35 60° NNE 18:43:21 85° ESE 18:47:42 10° SSW
Cosmos 1536 3.7 18:39:31 10° NNW 18:43:27 50° W 18:47:19 10° S
Cosmos 2322 Rocket 4.0 18:39:36 10° W 18:44:06 24° NNW 18:47:36 14° NNE
CZ-4 R/B 1.8 18:43:00 10° S 18:46:53 58° WSW 18:50:43 10° NNW
Cosmos 1782 Rocket 4.3 18:43:55 10° N 18:46:48 40° N 18:46:48 40° N
Cosmos 2195 Rocket 4.4 18:43:22 10° S 18:49:31 70° E 18:55:30 11° NNE
SL-16 R/B 4.1 18:45:21 10° W 18:49:39 21° NNW 18:52:53 14° N
Cosmos 2242 Rocket 3.7 18:48:52 10° SSW 18:53:25 76° WNW 18:54:45 46° N
Cosmos 1092 Rocket 3.9 18:47:40 10° S 18:54:00 86° E 19:00:19 10° NNE
Cosmos 2219 Rocket 2.7 18:52:08 10° SW 18:57:40 57° NW 19:00:10 32° NNE
Exosat Rocket 3.6 18:56:37 10° SW 19:01:50 73° WNW 19:02:57 52° N
Cosmos 921 Rocket 4.0 18:57:58 10° NNW 19:00:31 36° NNW 19:00:31 36° NNW
ISS -1.4 19:00:51 10° W 19:03:08 20° SW 19:03:08 20° SW
NOSS 0 Rocket 3.8 18:57:15 10° SSW 19:03:29 89° ESE 19:05:07 53° NE
Lacrosse 5 rocket 2.5 18:59:50 10° SW 19:02:32 35° SSW 19:02:32 35° SSW
NOSS 3-1 (C) 4.1 18:58:48 10° NW 19:05:32 51° NNE 19:06:34 48° NE
Cosmos 2297 3.6 19:01:40 10° NNW 19:07:26 84° WSW 19:08:42 56° SSE
Cosmos 1980 3.5 19:03:14 10° SSW 19:08:53 88° SE 19:09:21 77° NE
USA 229 DEB 4.0 19:05:11 10° NW 19:12:06 53° NNE 19:12:40 52° NE
USA 229 4.0 19:05:17 10° NW 19:12:11 53° NNE 19:12:44 52° NE
SL-4 R/B 3.4 19:10:15 10° WSW 19:12:35 34° SW 19:12:35 34° SW
Ariane Rocket 3.5 19:17:47 50° NNW 19:17:47 50° NNW 19:21:30 10° NNW
NOSS 3-1 (A) 4.2 19:10:35 10° NW 19:17:12 47° NNE 19:17:38 46° NNE
NOSS 3-4 (A) 4.0 19:11:22 10° WSW 19:17:23 52° NNW 19:19:00 42° NNE
NOSS 3-4 (C) 4.0 19:11:28 10° WSW 19:17:29 52° NNW 19:19:05 42° NNE
Cosmos 1943 Rocket 3.0 19:12:17 10° NNW 19:16:11 40° N 19:16:11 40° N
S3M 4.1 19:13:16 10° N 19:18:24 58° NNE 19:18:24 58° NNE
COSMOS 2428 3.6 19:14:09 10° WSW 19:19:35 45° NW 19:21:29 33° N
COSMOS 2455 4.4 19:17:36 10° WNW 19:22:33 25° NNW 19:23:58 23° N
COSMO-SKYMED 1 3.9 19:31:06 37° WNW 19:31:14 37° WNW 19:35:13 10° SW
Cosmos 1553 Rocket 4.1 19:28:38 10° NNW 19:34:59 76° W 19:37:31 39° S
SeaSat 1 3.8 19:53:55 36° WNW 19:53:55 36° WNW 19:57:05 10° NW
H-2A R/B 4.5 19:58:52 12° NNW 19:58:52 12° NNW 19:59:17 10° NNW
ATLAS 2AS CENTAUR R/B 3.7 19:48:41 10° W 19:56:18 43° NNW 19:57:33 41° N
Cosmos 2360 Rocket 4.3 20:01:24 10° WNW 20:05:06 17° NNW 20:05:45 17° NNW
Cosmos 2369 Rocket 3.8 20:03:09 10° NNW 20:05:40 28° NNW 20:05:40 28° NNW
SL-16 R/B 4.3 20:03:33 10° SSW 20:04:43 17° SSW 20:04:43 17° SSW
Cosmos 2333 Rocket 3.9 20:07:10 10° W 20:11:56 26° NW 20:12:16 26° NNW
USA 215 3.8 20:16:01 53° NW 20:16:01 53° NW 20:21:04 10° WNW
Cosmos 2344 4.1 20:09:04 10° NW 20:18:13 86° NE 20:18:50 81° ESE
Cosmos 2237 Rocket 3.7 20:17:53 10° WSW 20:21:37 32° W 20:21:37 32° W
Cosmos 2219 Rocket 4.4 20:38:50 10° WNW 20:41:54 19° NW 20:41:54 19° NW
